Other Surface Observations
Issued by NWS

Home | Current Version | Previous Version | Text Only | Print | Product List | Glossary On
Versions: 1 2 3 4 5 6 7 8 9 10 11 12 13 14 15 16 17 18 19 20 21 22 23 24 25 26 27 28 29 30 31 32 33 34 35 36 37 38 39 40 41 42 43 44 45 46 47 48 49 50
000
SXUS52 KTAE 281518
OSOTAE
OSOTAE
North Florida/South Alabama/Southwest Georgia Weather Roundup
National Weather Service Tallahassee Florida
1100 AM EDT FRI AUG 28 2015

Note: "fair" indicates few or no clouds below 12,000 feet with no
significant weather and/or obstructions to visibility.

!FLZ017-115-028-034-025-281600
...North Florida...

CITY           SKY/WX    TMP DP  RH WIND       PRES   REMARKS
TALLAHASSEE    CLOUDY    82  74  76 E8        30.04S
APALACHICOLA   PTSUNNY   84  74  71 E7        30.02R HX  91
PERRY          CLOUDY   N/A N/A N/A E5        30.06R
CROSS CITY       N/A     85  73  67 E5        30.05R HX  91
JACKSONVILLE   PTSUNNY   85  73  67 E5        30.06R HX  91
$$

!FLZ112-006-005-002-011-281600
...Florida Panhandle...

CITY           SKY/WX    TMP DP  RH WIND       PRES   REMARKS
MARIANNA       SUNNY     85  74  69 NE6       30.03R HX  92
BONIFAY        FAIR      85  72  65 NE5       30.05R HX  91
PANAMA CITY NW FAIR      85  70  60 NE6       30.02R
TYNDALL AFB    SUNNY     85  74  71 VRB5      30.01S HX  92
TYND DRONE APT FAIR      85  76  74 E6        30.01S HX  94
DE FUNIAK SPR  FAIR      82  66  58 E5        30.05R
EGLIN AFB      MOSUNNY   83  67  57 NE5       30.03R
DESTIN         SUNNY     84  70  62 NE6       30.03R
HURLBURT       SUNNY     84  64  50 VRB2      30.02R
CRESTVIEW      MOSUNNY   81  69  67 E5        30.05R
PENSACOLA      SUNNY     83  66  56 NE3       30.02R
$$

!ALZ063-066-281600
...South Alabama...

CITY           SKY/WX    TMP DP  RH WIND       PRES   REMARKS
DOTHAN         PTSUNNY   82  72  71 E6        30.09R
OZARK CAIRNS   MOSUNNY   83  73  70 E6        30.05R
FT RUCKER HELI PTSUNNY   82  71  69 CALM      30.05R
RUCKER HELI 3  FAIR      82  72  69 E8        30.07R
RUCKER HELI 2  NOT AVBL
FLORALA APT    MOSUNNY   80  68  66 SE6       30.06S
ANDALUSIA      SUNNY     86  69  56 SE7       30.05R HX  90
TROY           SUNNY     82  71  69 E6        30.07R
EUFALA         CLOUDY    83  75  77 E7        30.08R HX  90
MOBILE         MOSUNNY   81  68  64 CALM      30.03R
$$

!GAZ120>161-281600
...Southwest and South Central Georgia...

CITY           SKY/WX    TMP DP  RH WIND       PRES   REMARKS
THOMASVILLE    FAIR      79  73  83 CALM      30.08R
BAINBRIDGE     MOSUNNY   84  72  65 E6        30.05S
MOODY AFB      PTSUNNY   83  73  71 NE5       30.07R HX  90
VALDOSTA       CLOUDY    82  75  79 CALM      30.07R
MOULTRIE       PTSUNNY   79  73  83 NE3       30.08S
BLAKELY        SUNNY     84  75  74 E6        30.07R HX  92
ALBANY         CLOUDY    81  73  76 E7        30.10R
TIFTON         PTSUNNY   79  75  86 E5        30.09R
FITZGERALD     CLOUDY    81  76  85 E3        30.12R
CORDELE        CLOUDY    85  76  74 E7        30.11R HX  93
AMERICUS       CLOUDY    79  75  89 E6        30.12R
HOMERVILLE     FAIR      86  77  74 CALM      30.08S HX  97
$$

!GMZ750-755-770-775-281600
...Coastal and Buoy Obs...

STATION/POSITION TIME  TEMP    WIND        PRES    VSBY  WAVE
                       AIR SEA DIR/SP/G                  HT/PER
                 (UTC) (F)     (DEG/KT/KT) (MB)    (MI)  (FT/S)
KEATON BEACH     1500   79      80/  6/  7 1017.6R
CEDAR KEY        1500   81     110/  7/  8 1017.7R
C TOWER          1500   85     130/  4/  5 1016.5R
APALACHICOLA BUO 1450   86 87  190/  6/  6 1016.3R         1/ 4
PANAMA CITY BUOY 1450   85 86   CALM  /  2 1016.2R         1/ 3
MOBILE BUOY      1450   80 85  190/ 10/ 12 1016.5R         1
ORANGE BCH AL BU 1450   83 85  200/  4/  6 1016.0R         1
$$



USA.gov is the U.S. government's official web portal to all federal, state and local government web resources and services.